�������l�o���
Date,Time,MP-1(��Sv/h),MP-2(��Sv/h),MP-3(��Sv/h),MP-4(��Sv/h),MP-5(��Sv/h),MP-6(��Sv/h),MP-7(��Sv/h),MP-8(��Sv/h),����,����(m/s),���J
2017/12/30,00:00,0.894,1.494,0.937,1.774,1.192,0.493,0.882,0.845,���k��,3.7,��
2017/12/30,00:10,0.895,1.492,0.937,1.773,1.193,0.494,0.881,0.845,�k��,4.1,��
2017/12/30,00:20,0.895,1.493,0.937,1.772,1.192,0.494,0.881,0.846,�k�k��,3.4,��
2017/12/30,00:30,0.892,1.492,0.937,1.771,1.194,0.492,0.881,0.845,�k,3.0,��
2017/12/30,00:40,0.894,1.489,0.938,1.770,1.195,0.492,0.881,0.846,�k��,3.9,��
2017/12/30,00:50,0.893,1.490,0.936,1.768,1.192,0.491,0.881,0.846,��,8.3,��
2017/12/30,01:00,0.893,1.493,0.936,1.775,1.194,0.494,0.882,0.845,��,11.3,��
2017/12/30,01:10,0.892,1.492,0.938,1.772,1.194,0.493,0.883,0.847,��,11.1,��
2017/12/30,01:20,0.893,1.490,0.936,1.776,1.192,0.493,0.879,0.847,��,9.7,��
2017/12/30,01:30,0.893,1.490,0.935,1.775,1.193,0.493,0.883,0.847,��,8.1,��
2017/12/30,01:40,0.893,1.494,0.936,1.772,1.190,0.493,0.882,0.846,��,6.7,��
2017/12/30,01:50,0.894,1.490,0.935,1.772,1.190,0.492,0.883,0.849,��,6.6,��
2017/12/30,02:00,0.894,1.490,0.936,1.771,1.189,0.494,0.880,0.847,���k��,7.3,��
2017/12/30,02:10,0.893,1.492,0.939,1.775,1.192,0.495,0.881,0.847,���k��,6.3,��
2017/12/30,02:20,0.892,1.492,0.939,1.774,1.193,0.494,0.880,0.845,�k��,5.4,��
2017/12/30,02:30,0.894,1.492,0.938,1.775,1.192,0.493,0.881,0.846,�k��,5.6,��
2017/12/30,02:40,0.892,1.491,0.937,1.774,1.194,0.492,0.882,0.845,�k��,8.4,��
2017/12/30,02:50,0.895,1.490,0.937,1.773,1.194,0.494,0.881,0.846,�k��,7.6,��
2017/12/30,03:00,0.892,1.491,0.937,1.771,1.192,0.493,0.883,0.846,�k��,8.0,��
2017/12/30,03:10,0.892,1.490,0.938,1.774,1.195,0.492,0.884,0.848,�k��,7.8,��
2017/12/30,03:20,0.895,1.491,0.937,1.772,1.191,0.493,0.882,0.846,�k��,7.8,��
2017/12/30,03:30,0.895,1.494,0.937,1.773,1.192,0.494,0.881,0.844,�k��,6.7,��
2017/12/30,03:40,0.894,1.490,0.935,1.771,1.193,0.491,0.880,0.846,�k��,6.5,��
2017/12/30,03:50,0.893,1.492,0.937,1.772,1.193,0.493,0.881,0.843,�k��,8.1,��
2017/12/30,04:00,0.891,1.490,0.937,1.774,1.194,0.493,0.881,0.844,�k��,6.4,��
2017/12/30,04:10,0.894,1.489,0.937,1.770,1.194,0.493,0.881,0.844,�k�k��,3.9,��
2017/12/30,04:20,0.895,1.491,0.936,1.772,1.190,0.493,0.880,0.845,�k,2.6,��
2017/12/30,04:30,0.891,1.494,0.938,1.775,1.192,0.491,0.881,0.846,�k��,2.3,��
2017/12/30,04:40,0.894,1.493,0.937,1.772,1.192,0.493,0.881,0.846,���k��,1.1,��
2017/12/30,04:50,0.894,1.488,0.936,1.774,1.193,0.493,0.880,0.845,�k�k��,0.9,��
2017/12/30,05:00,0.895,1.491,0.937,1.769,1.192,0.491,0.881,0.846,�k�k��,1.7,��
2017/12/30,05:10,0.894,1.489,0.936,1.772,1.193,0.494,0.880,0.845,�k��,6.0,��
2017/12/30,05:20,0.894,1.492,0.936,1.770,1.194,0.492,0.881,0.846,�k�k��,3.7,��
2017/12/30,05:30,0.896,1.490,0.936,1.772,1.194,0.493,0.879,0.845,�k,2.3,��
2017/12/30,05:40,0.893,1.491,0.938,1.772,1.191,0.493,0.881,0.843,�k,3.5,��
2017/12/30,05:50,0.893,1.490,0.938,1.771,1.191,0.490,0.879,0.846,�k��,4.1,��
2017/12/30,06:00,0.893,1.489,0.936,1.770,1.191,0.492,0.879,0.844,���k��,1.8,��
2017/12/30,06:10,0.892,1.491,0.937,1.772,1.192,0.491,0.881,0.845,�k��,6.3,��
2017/12/30,06:20,0.891,1.490,0.938,1.775,1.191,0.492,0.881,0.845,�k��,5.3,��
2017/12/30,06:30,0.895,1.492,0.936,1.772,1.191,0.492,0.880,0.844,���쐼,2.2,��
2017/12/30,06:40,0.893,1.490,0.936,1.772,1.190,0.494,0.881,0.844,���쐼,0.6,��
2017/12/30,06:50,0.891,1.492,0.936,1.770,1.190,0.493,0.879,0.845,�k�k��,0.6,��
2017/12/30,07:00,0.891,1.492,0.936,1.772,1.191,0.491,0.879,0.845,-,CALM,��
2017/12/30,07:10,0.895,1.490,0.935,1.771,1.189,0.492,0.881,0.845,�쓌,0.9,��
2017/12/30,07:20,0.892,1.491,0.937,1.772,1.192,0.491,0.880,0.845,�k,2.3,��
2017/12/30,07:30,0.894,1.491,0.936,1.774,1.192,0.493,0.880,0.844,�k��,2.0,��
2017/12/30,07:40,0.895,1.491,0.936,1.772,1.191,0.491,0.880,0.844,���쐼,0.9,��
2017/12/30,07:50,0.892,1.490,0.935,1.773,1.190,0.493,0.880,0.845,��,2.5,��
2017/12/30,08:00,0.894,1.491,0.935,1.772,1.192,0.492,0.880,0.844,��,4.0,��
2017/12/30,08:10,0.892,1.490,0.936,1.773,1.190,0.491,0.880,0.845,��쓌,2.9,��
2017/12/30,08:20,0.896,1.493,0.937,1.770,1.190,0.492,0.880,0.845,��,3.1,��
2017/12/30,08:30,0.893,1.491,0.936,1.776,1.192,0.492,0.879,0.844,��쓌,2.9,��
2017/12/30,08:40,0.894,1.493,0.935,1.773,1.191,0.493,0.880,0.846,��,3.5,��
2017/12/30,08:50,0.894,1.493,0.938,1.773,1.192,0.491,0.881,0.845,��,1.7,��
2017/12/30,09:00,0.896,1.494,0.936,1.776,1.193,0.491,0.881,0.848,���쓌,0.9,��
2017/12/30,09:10,0.897,1.494,0.938,1.773,1.192,0.492,0.882,0.846,�k�k��,1.1,��
2017/12/30,09:20,0.895,1.493,0.936,1.771,1.192,0.493,0.881,0.846,��,0.9,��
2017/12/30,09:30,0.896,1.493,0.938,1.775,1.191,0.492,0.880,0.845,��,0.8,��
2017/12/30,09:40,0.896,1.493,0.938,1.777,1.193,0.493,0.882,0.845,-,CALM,��
2017/12/30,09:50,0.894,1.493,0.940,1.774,1.193,0.493,0.881,0.846,��쓌,2.3,��
2017/12/30,10:00,0.895,1.494,0.937,1.772,1.192,0.492,0.883,0.845,��쐼,2.0,��
2017/12/30,10:10,0.896,1.493,0.937,1.773,1.195,0.494,0.881,0.846,�쐼,1.7,��
2017/12/30,10:20,0.895,1.494,0.941,1.775,1.194,0.492,0.881,0.845,���k��,5.8,��
2017/12/30,10:30,0.898,1.496,0.939,1.774,1.193,0.495,0.879,0.847,�k��,7.8,��
2017/12/30,10:40,0.897,1.495,0.941,1.775,1.190,0.494,0.881,0.845,�k��,6.8,��
2017/12/30,10:50,0.897,1.493,0.940,1.775,1.195,0.494,0.883,0.847,�k��,9.8,��
2017/12/30,11:00,0.896,1.493,0.938,1.776,1.193,0.495,0.882,0.846,�k�k��,7.5,��
2017/12/30,11:10,0.898,1.492,0.937,1.776,1.200,0.493,0.883,0.848,�k��,7.2,��
2017/12/30,11:20,0.898,1.495,0.939,1.777,1.196,0.493,0.882,0.848,�k��,9.5,��
2017/12/30,11:30,0.896,1.495,0.940,1.776,1.194,0.492,0.882,0.847,�k��,11.1,��
2017/12/30,11:40,0.899,1.498,0.940,1.777,1.197,0.495,0.882,0.847,�k��,9.6,��
2017/12/30,11:50,0.902,1.495,0.939,1.777,1.198,0.494,0.882,0.846,�k��,11.4,��
2017/12/30,12:00,0.900,1.495,0.938,1.778,1.197,0.495,0.883,0.846,�k��,13.1,��
2017/12/30,12:10,0.899,1.492,0.938,1.777,1.197,0.494,0.883,0.846,�k��,8.6,��
2017/12/30,12:20,0.898,1.493,0.940,1.776,1.199,0.494,0.885,0.848,�k��,10.3,��
2017/12/30,12:30,0.897,1.491,0.941,1.775,1.198,0.493,0.883,0.847,�k��,12.1,��
2017/12/30,12:40,0.899,1.496,0.940,1.776,1.198,0.495,0.885,0.847,�k��,15.0,��
2017/12/30,12:50,0.899,1.492,0.939,1.778,1.196,0.494,0.885,0.845,���k��,11.7,��
2017/12/30,13:00,0.898,1.495,0.939,1.777,1.199,0.495,0.885,0.847,�k��,10.0,��
2017/12/30,13:10,0.899,1.496,0.939,1.778,1.199,0.493,0.884,0.847,�k��,11.8,��
2017/12/30,13:20,0.900,1.497,0.940,1.782,1.199,0.493,0.882,0.845,�k��,8.6,��
2017/12/30,13:30,0.901,1.495,0.942,1.779,1.199,0.496,0.884,0.846,�k��,11.6,��
2017/12/30,13:40,0.899,1.495,0.941,1.779,1.198,0.495,0.883,0.845,�k��,7.1,��
2017/12/30,13:50,0.899,1.493,0.941,1.775,1.200,0.493,0.883,0.848,�k��,9.3,��
2017/12/30,14:00,0.899,1.493,0.942,1.778,1.199,0.495,0.883,0.846,�k��,9.7,��
2017/12/30,14:10,0.899,1.493,0.942,1.777,1.201,0.496,0.883,0.847,�k��,11.6,��
2017/12/30,14:20,0.899,1.493,0.940,1.777,1.199,0.493,0.882,0.848,�k��,11.6,��
2017/12/30,14:30,0.900,1.496,0.941,1.778,1.195,0.494,0.883,0.848,�k��,8.5,��
2017/12/30,14:40,0.900,1.496,0.941,1.776,1.199,0.495,0.884,0.847,�k��,11.0,��
2017/12/30,14:50,0.900,1.497,0.940,1.779,1.199,0.495,0.884,0.846,�k��,6.8,��
2017/12/30,15:00,0.900,1.498,0.942,1.778,1.199,0.493,0.884,0.846,�k�k��,5.5,��
2017/12/30,15:10,0.898,1.497,0.940,1.778,1.198,0.493,0.884,0.848,�k�k��,5.6,��
2017/12/30,15:20,0.898,1.496,0.940,1.779,1.200,0.493,0.884,0.846,�k�k��,7.3,��
2017/12/30,15:30,0.901,1.498,0.943,1.779,1.198,0.494,0.882,0.848,�k�k��,5.2,��
2017/12/30,15:40,0.898,1.498,0.942,1.782,1.200,0.492,0.883,0.846,�k�k��,4.4,��
2017/12/30,15:50,0.899,1.499,0.940,1.777,1.199,0.493,0.883,0.847,�k��,5.9,��
2017/12/30,16:00,0.898,1.498,0.943,1.776,1.199,0.494,0.882,0.847,�k�k��,5.8,��
2017/12/30,16:10,0.896,1.497,0.939,1.777,1.199,0.493,0.884,0.846,�k�k��,4.9,��
2017/12/30,16:20,0.896,1.495,0.940,1.776,1.199,0.494,0.882,0.847,�k�k��,7.0,��
2017/12/30,16:30,0.898,1.496,0.940,1.775,1.195,0.493,0.882,0.846,�k��,6.0,��
2017/12/30,16:40,0.896,1.495,0.939,1.778,1.195,0.492,0.883,0.846,���k��,4.8,��
2017/12/30,16:50,0.897,1.497,0.938,1.776,1.196,0.493,0.882,0.847,�k��,5.0,��
2017/12/30,17:00,0.897,1.495,0.939,1.775,1.197,0.492,0.882,0.845,�k��,4.5,��
2017/12/30,17:10,0.895,1.494,0.938,1.776,1.197,0.493,0.881,0.846,�k��,4.7,��
2017/12/30,17:20,0.897,1.496,0.939,1.776,1.195,0.492,0.883,0.844,�k��,3.3,��
2017/12/30,17:30,0.897,1.494,0.939,1.777,1.197,0.493,0.882,0.845,�k��,3.9,��
2017/12/30,17:40,0.895,1.497,0.939,1.773,1.197,0.492,0.880,0.846,�k��,4.3,��
2017/12/30,17:50,0.896,1.496,0.938,1.777,1.196,0.493,0.882,0.845,�k�k��,4.4,��
2017/12/30,18:00,0.895,1.496,0.937,1.776,1.197,0.492,0.880,0.845,�k�k��,3.1,��
2017/12/30,18:10,0.893,1.495,0.938,1.775,1.194,0.492,0.880,0.845,�k,4.5,��
2017/12/30,18:20,0.895,1.497,0.937,1.774,1.195,0.493,0.880,0.845,�k,4.9,��
2017/12/30,18:30,0.896,1.496,0.937,1.775,1.195,0.490,0.881,0.846,�k�k��,5.9,��
2017/12/30,18:40,0.895,1.495,0.938,1.775,1.196,0.491,0.880,0.844,�k�k��,5.4,��
2017/12/30,18:50,0.894,1.494,0.938,1.778,1.195,0.491,0.879,0.845,�k��,3.5,��
2017/12/30,19:00,0.895,1.494,0.936,1.774,1.193,0.494,0.880,0.846,�k��,2.6,��
2017/12/30,19:10,0.894,1.494,0.937,1.773,1.196,0.492,0.878,0.844,�k��,3.1,��
2017/12/30,19:20,0.894,1.494,0.936,1.775,1.195,0.492,0.879,0.844,�k��,3.7,��
2017/12/30,19:30,0.895,1.495,0.936,1.774,1.198,0.492,0.880,0.844,�k��,4.3,��
2017/12/30,19:40,0.894,1.495,0.936,1.774,1.195,0.491,0.880,0.843,�k��,6.3,��
2017/12/30,19:50,0.896,1.495,0.937,1.772,1.191,0.491,0.880,0.843,�k��,5.4,��
2017/12/30,20:00,0.894,1.495,0.933,1.773,1.195,0.492,0.878,0.843,�k��,5.8,��
2017/12/30,20:10,0.896,1.494,0.936,1.772,1.194,0.491,0.881,0.845,�k��,5.8,��
2017/12/30,20:20,0.894,1.494,0.935,1.774,1.195,0.491,0.880,0.844,�k�k��,6.1,��
2017/12/30,20:30,0.893,1.493,0.937,1.773,1.194,0.491,0.880,0.843,�k�k��,6.7,��
2017/12/30,20:40,0.894,1.493,0.936,1.773,1.195,0.491,0.879,0.845,�k�k��,6.6,��
2017/12/30,20:50,0.892,1.494,0.938,1.771,1.193,0.491,0.878,0.844,�k�k��,5.8,��
2017/12/30,21:00,0.892,1.492,0.935,1.773,1.194,0.491,0.879,0.845,�k�k��,6.1,��
2017/12/30,21:10,0.894,1.494,0.937,1.773,1.195,0.491,0.879,0.845,�k��,5.1,��
2017/12/30,21:20,0.893,1.492,0.937,1.775,1.195,0.490,0.877,0.842,�k��,4.9,��
2017/12/30,21:30,0.894,1.493,0.934,1.773,1.196,0.491,0.877,0.844,�k��,4.9,��
2017/12/30,21:40,0.894,1.492,0.934,1.773,1.195,0.491,0.876,0.844,�k��,4.3,��
2017/12/30,21:50,0.895,1.495,0.937,1.772,1.192,0.491,0.880,0.845,�k��,5.1,��
2017/12/30,22:00,0.893,1.490,0.936,1.773,1.193,0.491,0.878,0.844,�k��,4.7,��
2017/12/30,22:10,0.892,1.491,0.933,1.771,1.192,0.492,0.878,0.844,�k��,4.6,��
2017/12/30,22:20,0.894,1.491,0.936,1.771,1.194,0.490,0.879,0.844,�k��,5.2,��
2017/12/30,22:30,0.892,1.492,0.936,1.770,1.192,0.492,0.877,0.844,�k��,5.9,��
2017/12/30,22:40,0.894,1.491,0.936,1.772,1.196,0.491,0.878,0.842,�k��,5.2,��
2017/12/30,22:50,0.894,1.494,0.934,1.771,1.194,0.491,0.877,0.843,���k��,5.2,��
2017/12/30,23:00,0.892,1.494,0.936,1.773,1.194,0.490,0.877,0.844,���k��,4.7,��
2017/12/30,23:10,0.893,1.493,0.937,1.773,1.194,0.492,0.877,0.844,���k��,4.2,��
2017/12/30,23:20,0.894,1.493,0.935,1.771,1.194,0.492,0.878,0.846,���k��,3.7,��
2017/12/30,23:30,0.895,1.493,0.936,1.770,1.193,0.491,0.878,0.843,��,3.6,��
2017/12/30,23:40,0.894,1.495,0.934,1.774,1.196,0.492,0.877,0.844,��,3.8,��
2017/12/30,23:50,0.891,1.494,0.936,1.772,1.193,0.491,0.878,0.844,���k��,4.1,��
